Location: Ponte Samoggia
(44.5667°N, 11.1333°E)
Time: 22:51:56
(UTC+00:00)

Cosmos 2221 Rocket - Pass Details

Date: 26 May 2022
Orbit: 621 x 647 km, 82.5° (Epoch: 29 June)

Event Time Altitude Azimuth Distance (km) Brightness Sun altitude
Exits shadow 00:06:49 35° 274° (W) 1,003 4.5 -23.2°
Maximum altitude 00:07:08 36° 285° (WNW) 994 4.5 -23.2°
Drops below altitude 10° 00:11:14 10° 352° (N) 2,000 7.1 -23.0°
Sets 00:13:37 0° 1° (N) 2,910 8.3 -22.9°
